Weather History for Fryeburg, ME

Change the Weather History Date:

Monday, February 18, 2013

  Actual Average Record
Temperature  
Mean Temperature 20 °F -  
Max Temperature 28 °F 32 °F 55 °F (2011)
Min Temperature 10 °F 7 °F -14 °F (2000)
Degree Days  
Heating Degree Days 45    
Moisture  
Dew Point -4 °F    
Average Humidity 37    
Maximum Humidity 49    
Minimum Humidity 19    
Precipitation  
Precipitation 0.00 in - - ()
Sea Level Pressure  
Sea Level Pressure 29.80 in    
Wind  
Wind Speed 12 mph (West)    
Max Wind Speed 20 mph    
Max Gust Speed 34 mph    
Visibility 10 miles    
Events      
Averages and records for this station are not official NWS values.
T = Trace of Precipitation, MM = Missing Value Source: NWS Daily Summary

Daily Weather History Graph

Daily Weather History Graph

Search for Another Location

Airport:

Trip Planner

Search our weather history database for the weather conditions in past years. The results will help you decide how hot, cold, wet, or windy it might be!

Date:

Astronomy

Feb. 18, 2013 Rise Set
Actual Time 6:38 AM EST 5:17 PM EST
Civil Twilight 6:08 AM EST 5:47 PM EST
Nautical Twilight 5:35 AM EST 6:21 PM EST
Astronomical Twilight 5:01 AM EST 6:54 PM EST
Moon 10:55 AM EST (2/18) 1:20 AM EST (2/18)
Length of Visible Light 11h 38m
Length of Day
10h 39m
First Quarter, 58% of the Moon is Illuminated
Feb 18
First Quarter
Feb 25
Full
Mar 4
Last Quarter
Mar 11
New
Mar 19
First Quarter

Hourly Weather History & Observations

Time (EST) Temp. Windchill Dew Point Humidity Pressure Visibility Wind Dir Wind Speed Gust Speed Precip Events Conditions
12:54 AM 15.1 °F 1.1 °F -0.9 °F 49% 29.52 in 10.0 mi West 12.7 mph 23.0 mph N/A   Overcast
1:54 AM 14.0 °F 1.2 °F -2.0 °F 49% 29.55 in 10.0 mi West 10.4 mph 18.4 mph N/A   Scattered Clouds
2:32 AM 15.8 °F 2.1 °F -2.2 °F 45% 29.54 in 10.0 mi West 12.7 mph 25.3 mph N/A   Scattered Clouds
2:54 AM 15.1 °F 1.1 °F -2.0 °F 47% 29.57 in 10.0 mi West 12.7 mph 23.0 mph N/A   Partly Cloudy
3:54 AM 15.1 °F -1.1 °F -2.0 °F 47% 29.60 in 10.0 mi WNW 17.3 mph 28.8 mph N/A   Clear
4:14 AM 15.8 °F -1.1 °F -2.2 °F 45% 29.58 in 10.0 mi WNW 19.6 mph 31.1 mph N/A   Partly Cloudy
4:54 AM 15.1 °F 3.3 °F -2.0 °F 47% 29.65 in 10.0 mi WNW 9.2 mph 21.9 mph N/A   Clear
5:54 AM 14.0 °F 8.2 °F -2.0 °F 49% 29.69 in 10.0 mi West 3.5 mph - N/A   Clear
6:54 AM 14.0 °F 1.2 °F -2.0 °F 49% 29.73 in 10.0 mi West 10.4 mph 16.1 mph N/A   Clear
7:54 AM 12.9 °F 0.7 °F -2.9 °F 49% 29.78 in 10.0 mi West 9.2 mph 19.6 mph N/A   Clear
8:54 AM 14.0 °F -3.0 °F -2.9 °F 47% 29.81 in 10.0 mi West 18.4 mph 31.1 mph N/A   Clear
9:54 AM 18.0 °F 6.9 °F -0.9 °F 44% 29.84 in 10.0 mi SW 9.2 mph - 0.00 in   Clear
10:54 AM 19.9 °F 5.2 °F -0.0 °F 42% 29.83 in 10.0 mi West 17.3 mph 26.5 mph 0.00 in   Clear
11:54 AM 23.0 °F 9.6 °F 1.9 °F 40% 29.81 in 10.0 mi West 16.1 mph 28.8 mph N/A   Clear
12:54 PM 27.0 °F 13.9 °F 1.0 °F 33% 29.83 in 10.0 mi West 18.4 mph 33.4 mph N/A   Partly Cloudy
1:54 PM 28.0 °F 15.7 °F -2.0 °F 27% 29.83 in 10.0 mi West 17.3 mph 34.5 mph N/A   Clear
2:20 PM 28.4 °F 15.8 °F -2.2 °F 27% 29.82 in 10.0 mi West 18.4 mph 28.8 mph N/A   Partly Cloudy
2:54 PM 28.0 °F 15.7 °F -5.1 °F 24% 29.86 in 10.0 mi West 17.3 mph 33.4 mph N/A   Partly Cloudy
3:54 PM 28.0 °F 15.3 °F -8.0 °F 21% 29.88 in 10.0 mi West 18.4 mph 26.5 mph N/A   Clear
4:54 PM 26.1 °F 15.0 °F -9.9 °F 20% 29.91 in 10.0 mi WSW 12.7 mph 26.5 mph N/A   Clear
5:54 PM 25.0 °F 17.1 °F -9.9 °F 21% 29.94 in 10.0 mi WSW 6.9 mph 17.3 mph N/A   Clear
6:54 PM 23.0 °F - -11.0 °F 22% 29.96 in 10.0 mi Calm Calm - N/A   Clear
7:54 PM 25.0 °F - -11.9 °F 19% 29.98 in 10.0 mi Calm Calm - N/A   Clear
8:54 PM 21.9 °F 17.2 °F -9.9 °F 24% 30.00 in 10.0 mi WSW 3.5 mph - N/A   Clear
9:54 PM 19.9 °F - -9.0 °F 27% 30.01 in 10.0 mi Calm Calm - N/A   Clear
10:54 PM 12.9 °F - -7.1 °F 41% 30.03 in 10.0 mi Calm Calm - N/A   Clear
11:54 PM 10.0 °F - -7.1 °F 46% 30.05 in 10.0 mi Calm Calm - N/A   Clear